, AK

(GMT )
Deadhorse

Weather History for PASC - September, 2012

Change the Weather History Date:

Monday, September 10, 2012

  Actual Average Record
Temperature  
Mean Temperature 35 °F -  
Max Temperature 39 °F 39 °F 61 °F (2007)
Min Temperature 33 °F 30 °F 24 °F (1992)
Degree Days  
Heating Degree Days 30    
Moisture  
Dew Point 30 °F    
Average Humidity 82    
Maximum Humidity 96    
Minimum Humidity 68    
Precipitation  
Precipitation 0.00 in - - ()
Sea Level Pressure  
Sea Level Pressure 30.15 in    
Wind  
Wind Speed 6 mph (NNE)    
Max Wind Speed 9 mph    
Max Gust Speed -    
Visibility 10 miles    
Events Snow    
Averages and records for this station are not official NWS values.
T = Trace of Precipitation, MM = Missing Value Source: NWS Daily Summary

Daily Weather History Graph

Daily Weather History Graph

Search for Another Location

Airport or City:

Trip Planner

Search our weather history database for the weather conditions in past years. The results will help you decide how hot, cold, wet, or windy it might be!

Date:

Astronomy

Sep. 10, 2012 Rise Set
Actual Time 6:48 AM AKDT 8:49 PM AKDT
Civil Twilight 5:41 AM AKDT 9:56 PM AKDT
Nautical Twilight 4:01 AM AKDT 11:33 PM AKDT
Astronomical Twilight Sun does not set Sun does not set
Moon 11:34 PM AKDT (9/10) 8:16 PM AKDT (9/10)
Length of Visible Light 16h 15m
Length of Day
14h 01m
Waning Crescent, 29% of the Moon is Illuminated
Sep 10
Waning Crescent
Sep 15
New
Sep 22
First Quarter
Sep 29
Full
Oct 7
Last Quarter

Hourly Weather History & Observations

Time (AKDT) Temp. Windchill Dew Point Humidity Pressure Visibility Wind Dir Wind Speed Gust Speed Precip Events Conditions
12:53 AM 35.1 °F 27.9 °F 30.9 °F 85% 30.14 in 10.0 mi North 9.2 mph - N/A   Overcast
1:53 AM 35.1 °F 28.6 °F 30.9 °F 85% 30.14 in 10.0 mi North 8.1 mph - N/A   Overcast
2:53 AM 34.0 °F 28.0 °F 30.0 °F 85% 30.14 in 10.0 mi North 6.9 mph - N/A   Overcast
3:53 AM 33.1 °F 27.7 °F 30.0 °F 89% 30.14 in 10.0 mi NNW 5.8 mph - N/A   Overcast
4:53 AM 33.1 °F 28.7 °F 28.9 °F 85% 30.14 in 10.0 mi NNW 4.6 mph - N/A   Overcast
5:53 AM 33.1 °F 30.0 °F 28.9 °F 85% 30.14 in 10.0 mi NNW 3.5 mph - N/A   Mostly Cloudy
6:53 AM 33.1 °F 30.0 °F 28.9 °F 85% 30.15 in 10.0 mi NW 3.5 mph - N/A   Overcast
7:53 AM 33.1 °F - 30.9 °F 92% 30.15 in 10.0 mi Calm Calm - N/A   Mostly Cloudy
8:53 AM 34.0 °F 31.0 °F 30.9 °F 89% 30.14 in 10.0 mi WNW 3.5 mph - 0.00 in   Mostly Cloudy
9:53 AM 36.0 °F 33.3 °F 30.0 °F 79% 30.15 in 10.0 mi NNW 3.5 mph - N/A   Mostly Cloudy
10:53 AM 37.0 °F 33.3 °F 30.9 °F 79% 30.15 in 10.0 mi North 4.6 mph - N/A   Overcast
11:53 AM 37.0 °F 33.3 °F 30.0 °F 76% 30.16 in 10.0 mi North 4.6 mph - 0.00 in   Overcast
12:12 PM 35.6 °F 30.7 °F 30.2 °F 81% 30.15 in 7.0 mi North 5.8 mph - 0.00 in Snow Light Snow
12:53 PM 37.9 °F 34.4 °F 28.9 °F 70% 30.15 in 10.0 mi NE 4.6 mph - 0.00 in   Overcast
1:53 PM 37.0 °F 32.4 °F 30.0 °F 76% 30.15 in 10.0 mi North 5.8 mph - N/A   Overcast
2:53 PM 37.9 °F 32.7 °F 28.0 °F 68% 30.16 in 10.0 mi NNE 6.9 mph - N/A   Overcast
3:53 PM 37.9 °F 32.7 °F 28.0 °F 68% 30.15 in 10.0 mi NNE 6.9 mph - N/A   Mostly Cloudy
4:53 PM 37.9 °F 32.1 °F 30.0 °F 73% 30.15 in 10.0 mi NNE 8.1 mph - N/A   Overcast
5:53 PM 37.0 °F 32.4 °F 30.9 °F 79% 30.15 in 10.0 mi NNE 5.8 mph - 0.00 in Snow Light Snow
6:53 PM 37.0 °F 31.6 °F 28.9 °F 73% 30.15 in 10.0 mi East 6.9 mph - 0.00 in   Overcast
7:53 PM 36.0 °F 30.3 °F 30.0 °F 79% 30.14 in 10.0 mi ENE 6.9 mph - N/A   Mostly Cloudy
8:53 PM 35.1 °F 30.1 °F 30.9 °F 85% 30.14 in 10.0 mi ENE 5.8 mph - N/A   Mostly Cloudy
9:53 PM 34.0 °F 28.8 °F 30.9 °F 89% 30.14 in 10.0 mi ENE 5.8 mph - N/A   Mostly Cloudy
10:53 PM 33.1 °F 28.7 °F 30.9 °F 92% 30.14 in 10.0 mi ENE 4.6 mph - N/A   Mostly Cloudy
11:53 PM 33.1 °F 30.0 °F 32.0 °F 96% 30.13 in 10.0 mi East 3.5 mph - N/A   Mostly Cloudy